Time,TemperatureF,DewpointF,PressureIn,WindDirection,WindDirectionDegrees,WindSpeedMPH,WindSpeedGustMPH,Humidity,HourlyPrecipIn,Conditions,Clouds,dailyrainin,SoftwareType,DateUTC
2013-02-12 00:07:00,53.0,51.0,29.98,WSW,242,1.0,4.0,92,0.00,,,0.00,weatherlink.com 1.10,2013-02-12 05:07:00,
2013-02-12 00:22:00,52.9,51.0,29.98,South,183,0.0,3.0,92,0.00,,,0.00,weatherlink.com 1.10,2013-02-12 05:22:00,
2013-02-12 00:37:00,52.6,51.0,30.00,SW,220,1.0,3.0,93,0.00,,,0.00,weatherlink.com 1.10,2013-02-12 05:37:00,
2013-02-12 00:52:00,52.5,51.0,30.00,WNW,300,0.0,5.0,93,0.00,,,0.00,weatherlink.com 1.10,2013-02-12 05:52:00,
2013-02-12 01:07:00,52.4,51.0,30.00,SW,236,2.0,4.0,93,0.00,,,0.00,weatherlink.com 1.10,2013-02-12 06:07:00,
2013-02-12 01:22:00,52.4,51.0,30.00,WNW,291,3.0,6.0,93,0.00,,,0.00,weatherlink.com 1.10,2013-02-12 06:22:00,
2013-02-12 01:37:00,52.2,51.0,30.00,SW,235,0.0,4.0,94,0.00,,,0.00,weatherlink.com 1.10,2013-02-12 06:37:00,
2013-02-12 01:52:00,52.0,50.0,29.99,WNW,284,0.0,4.0,94,0.00,,,0.00,weatherlink.com 1.10,2013-02-12 06:52:00,
2013-02-12 02:07:00,51.7,50.0,29.99,WNW,282,1.0,2.0,94,0.00,,,0.00,weatherlink.com 1.10,2013-02-12 07:07:00,
2013-02-12 02:22:00,51.2,50.0,29.98,WSW,251,0.0,2.0,94,0.00,,,0.00,weatherlink.com 1.10,2013-02-12 07:22:00,
2013-02-12 02:37:00,50.4,49.0,29.99,WSW,251,0.0,1.0,94,0.00,,,0.00,weatherlink.com 1.10,2013-02-12 07:37:00,
2013-02-12 02:52:00,49.6,48.0,29.99,WSW,251,0.0,0.0,94,0.00,,,0.00,weatherlink.com 1.10,2013-02-12 07:52:00,
2013-02-12 03:07:00,49.1,48.0,29.99,WSW,251,0.0,1.0,96,0.00,,,0.00,weatherlink.com 1.10,2013-02-12 08:07:00,
2013-02-12 03:22:00,49.0,48.0,30.00,WSW,250,1.0,2.0,96,0.00,,,0.00,weatherlink.com 1.10,2013-02-12 08:22:00,
2013-02-12 03:37:00,49.6,49.0,29.99,WSW,248,0.0,2.0,97,0.00,,,0.00,weatherlink.com 1.10,2013-02-12 08:37:00,
2013-02-12 03:53:00,49.5,48.0,29.98,WSW,248,0.0,2.0,96,0.00,,,0.00,weatherlink.com 1.10,2013-02-12 08:53:00,
2013-02-12 04:08:00,48.7,47.0,29.98,WSW,248,0.0,0.0,95,0.00,,,0.00,weatherlink.com 1.10,2013-02-12 09:08:00,
2013-02-12 04:23:00,47.4,46.0,29.98,WSW,248,0.0,1.0,95,0.00,,,0.00,weatherlink.com 1.10,2013-02-12 09:23:00,
2013-02-12 04:38:00,46.9,46.0,29.98,WSW,248,0.0,1.0,97,0.00,,,0.00,weatherlink.com 1.10,2013-02-12 09:38:00,
2013-02-12 04:53:00,46.7,46.0,29.99,WSW,248,0.0,1.0,96,0.00,,,0.00,weatherlink.com 1.10,2013-02-12 09:53:00,
2013-02-12 05:08:00,46.7,46.0,29.99,WSW,248,0.0,0.0,97,0.00,,,0.00,weatherlink.com 1.10,2013-02-12 10:08:00,
2013-02-12 05:23:00,46.4,46.0,30.01,WSW,248,0.0,0.0,97,0.00,,,0.00,weatherlink.com 1.10,2013-02-12 10:23:00,
2013-02-12 05:38:00,46.4,46.0,30.01,WSW,248,0.0,0.0,97,0.00,,,0.00,weatherlink.com 1.10,2013-02-12 10:38:00,
2013-02-12 05:53:00,46.1,45.0,30.01,WSW,248,0.0,0.0,97,0.00,,,0.00,weatherlink.com 1.10,2013-02-12 10:53:00,
2013-02-12 06:08:00,45.6,45.0,30.02,WSW,248,0.0,1.0,97,0.00,,,0.00,weatherlink.com 1.10,2013-02-12 11:08:00,
2013-02-12 06:23:00,45.4,45.0,30.02,WSW,248,0.0,0.0,97,0.00,,,0.00,weatherlink.com 1.10,2013-02-12 11:23:00,
2013-02-12 06:38:00,45.0,44.0,30.03,WSW,248,0.0,0.0,97,0.00,,,0.00,weatherlink.com 1.10,2013-02-12 11:38:00,
2013-02-12 06:53:00,44.7,44.0,30.03,WSW,248,0.0,0.0,97,0.00,,,0.00,weatherlink.com 1.10,2013-02-12 11:53:00,
2013-02-12 07:08:00,44.6,44.0,30.03,WSW,248,0.0,1.0,97,0.00,,,0.00,weatherlink.com 1.10,2013-02-12 12:08:00,
2013-02-12 07:23:00,44.2,43.0,30.02,WSW,248,0.0,1.0,97,0.00,,,0.00,weatherlink.com 1.10,2013-02-12 12:23:00,
2013-02-12 07:38:00,44.0,43.0,30.04,WSW,248,0.0,0.0,97,0.00,,,0.00,weatherlink.com 1.10,2013-02-12 12:38:00,
2013-02-12 07:53:00,44.2,44.0,30.04,WSW,248,0.0,0.0,98,0.00,,,0.00,weatherlink.com 1.10,2013-02-12 12:53:00,
2013-02-12 08:08:00,44.6,44.0,30.04,WSW,248,0.0,0.0,98,0.00,,,0.00,weatherlink.com 1.10,2013-02-12 13:08:00,
2013-02-12 08:23:00,45.4,45.0,30.07,WSW,248,0.0,0.0,98,0.00,,,0.00,weatherlink.com 1.10,2013-02-12 13:23:00,
2013-02-12 08:38:00,46.1,46.0,30.06,WSW,248,0.0,0.0,99,0.00,,,0.00,weatherlink.com 1.10,2013-02-12 13:38:00,
2013-02-12 08:53:00,46.3,46.0,30.08,WSW,248,0.0,0.0,98,0.00,,,0.00,weatherlink.com 1.10,2013-02-12 13:53:00,
2013-02-12 09:08:00,46.5,46.0,30.08,WSW,248,0.0,1.0,98,0.00,,,0.00,weatherlink.com 1.10,2013-02-12 14:08:00,
2013-02-12 09:23:00,46.1,43.0,30.10,WSW,246,1.0,4.0,90,0.00,,,0.00,weatherlink.com 1.10,2013-02-12 14:23:00,
2013-02-12 09:38:00,47.6,40.0,30.08,SW,231,1.0,3.0,75,0.00,,,0.00,weatherlink.com 1.10,2013-02-12 14:38:00,
2013-02-12 09:53:00,49.3,40.0,30.09,SSE,159,0.0,3.0,71,0.00,,,0.00,weatherlink.com 1.10,2013-02-12 14:53:00,
2013-02-12 10:08:00,50.5,41.0,30.09,South,187,0.0,2.0,69,0.00,,,0.00,weatherlink.com 1.10,2013-02-12 15:08:00,
2013-02-12 10:23:00,51.7,38.0,30.07,ESE,102,0.0,2.0,61,0.00,,,0.00,weatherlink.com 1.10,2013-02-12 15:23:00,
2013-02-12 10:38:00,53.1,39.0,30.09,East,82,0.0,2.0,60,0.00,,,0.00,weatherlink.com 1.10,2013-02-12 15:38:00,
2013-02-12 10:53:00,53.6,38.0,30.07,WSW,253,2.0,3.0,55,0.00,,,0.00,weatherlink.com 1.10,2013-02-12 15:53:00,
2013-02-12 11:08:00,55.4,40.0,30.06,ESE,113,2.0,4.0,56,0.00,,,0.00,weatherlink.com 1.10,2013-02-12 16:08:00,
2013-02-12 11:23:00,56.2,39.0,30.07,West,261,1.0,4.0,53,0.00,,,0.00,weatherlink.com 1.10,2013-02-12 16:23:00,
2013-02-12 11:39:00,57.7,37.0,30.06,West,269,0.0,3.0,46,0.00,,,0.00,weatherlink.com 1.10,2013-02-12 16:39:00,
2013-02-12 11:54:00,59.4,38.0,30.04,ENE,59,0.0,3.0,45,0.00,,,0.00,weatherlink.com 1.10,2013-02-12 16:54:00,
2013-02-12 12:09:00,60.1,37.0,30.05,ESE,103,1.0,5.0,43,0.00,,,0.00,weatherlink.com 1.10,2013-02-12 17:09:00,
2013-02-12 12:24:00,60.5,35.0,30.05,NW,310,2.0,4.0,38,0.00,,,0.00,weatherlink.com 1.10,2013-02-12 17:24:00,
2013-02-12 12:39:00,61.2,35.0,30.03,NE,34,1.0,3.0,37,0.00,,,0.00,weatherlink.com 1.10,2013-02-12 17:39:00,
2013-02-12 12:54:00,61.3,33.0,30.00,SW,229,1.0,2.0,35,0.00,,,0.00,weatherlink.com 1.10,2013-02-12 17:54:00,
2013-02-12 13:09:00,61.4,35.0,30.00,SE,133,2.0,4.0,37,0.00,,,0.00,weatherlink.com 1.10,2013-02-12 18:09:00,
2013-02-12 13:24:00,60.3,31.0,30.00,SE,132,1.0,3.0,33,0.00,,,0.00,weatherlink.com 1.10,2013-02-12 18:24:00,
2013-02-12 13:39:00,60.5,34.0,30.00,SW,219,1.0,3.0,37,0.00,,,0.00,weatherlink.com 1.10,2013-02-12 18:39:00,
2013-02-12 13:54:00,60.9,34.0,30.00,SE,132,1.0,5.0,36,0.00,,,0.00,weatherlink.com 1.10,2013-02-12 18:54:00,
2013-02-12 14:09:00,61.0,36.0,30.00,East,86,0.0,4.0,40,0.00,,,0.00,weatherlink.com 1.10,2013-02-12 19:09:00,
2013-02-12 14:24:00,60.7,35.0,29.99,SE,130,4.0,5.0,39,0.00,,,0.00,weatherlink.com 1.10,2013-02-12 19:24:00,
2013-02-12 14:39:00,61.0,37.0,29.99,WSW,251,2.0,4.0,41,0.00,,,0.00,weatherlink.com 1.10,2013-02-12 19:39:00,
2013-02-12 14:54:00,60.9,35.0,29.99,West,277,1.0,5.0,38,0.00,,,0.00,weatherlink.com 1.10,2013-02-12 19:54:00,
2013-02-12 15:09:00,61.0,34.0,29.98,SW,232,1.0,3.0,36,0.00,,,0.00,weatherlink.com 1.10,2013-02-12 20:09:00,
2013-02-12 15:24:00,61.0,34.0,29.97,West,281,1.0,3.0,36,0.00,,,0.00,weatherlink.com 1.10,2013-02-12 20:24:00,
2013-02-12 15:39:00,60.8,35.0,29.97,SE,125,2.0,3.0,39,0.00,,,0.00,weatherlink.com 1.10,2013-02-12 20:39:00,
2013-02-12 15:54:00,60.5,36.0,29.97,SE,142,0.0,3.0,41,0.00,,,0.00,weatherlink.com 1.10,2013-02-12 20:54:00,
2013-02-12 16:09:00,60.1,36.0,29.98,SSE,158,0.0,2.0,40,0.00,,,0.00,weatherlink.com 1.10,2013-02-12 21:09:00,
2013-02-12 16:24:00,59.6,36.0,29.97,SSE,158,0.0,2.0,42,0.00,,,0.00,weatherlink.com 1.10,2013-02-12 21:24:00,
2013-02-12 16:39:00,59.3,37.0,29.98,SSE,158,0.0,0.0,43,0.00,,,0.00,weatherlink.com 1.10,2013-02-12 21:39:00,
2013-02-12 16:54:00,58.7,39.0,29.97,SSE,158,0.0,0.0,48,0.00,,,0.00,weatherlink.com 1.10,2013-02-12 21:54:00,
2013-02-12 17:09:00,57.7,36.0,29.97,SSW,195,1.0,3.0,44,0.00,,,0.00,weatherlink.com 1.10,2013-02-12 22:09:00,
2013-02-12 17:24:00,57.3,35.0,29.97,SSW,195,0.0,2.0,44,0.00,,,0.00,weatherlink.com 1.10,2013-02-12 22:24:00,
2013-02-12 17:39:00,56.6,41.0,29.97,SSW,195,1.0,2.0,56,0.00,,,0.00,weatherlink.com 1.10,2013-02-12 22:39:00,
2013-02-12 18:41:00,53.7,39.0,29.94,SSW,195,0.0,0.0,59,0.00,,,0.00,weatherlink.com 1.10,2013-02-12 23:41:00,
2013-02-12 18:54:00,53.3,42.0,29.92,SSW,195,0.0,0.0,66,0.00,,,0.00,weatherlink.com 1.10,2013-02-12 23:54:00,
2013-02-12 19:09:00,52.9,43.0,29.92,SSW,195,0.0,1.0,69,0.00,,,0.00,weatherlink.com 1.10,2013-02-13 00:09:00,
2013-02-12 19:24:00,52.4,41.0,29.91,SSW,195,0.0,1.0,66,0.00,,,0.00,weatherlink.com 1.10,2013-02-13 00:24:00,
2013-02-12 19:39:00,52.1,43.0,29.94,SSW,195,0.0,0.0,70,0.00,,,0.00,weatherlink.com 1.10,2013-02-13 00:39:00,
2013-02-12 19:54:00,51.5,42.0,29.97,SSW,195,0.0,0.0,71,0.00,,,0.00,weatherlink.com 1.10,2013-02-13 00:54:00,
2013-02-12 20:09:00,51.3,43.0,29.97,SSW,195,1.0,1.0,73,0.00,,,0.00,weatherlink.com 1.10,2013-02-13 01:09:00,
2013-02-12 20:24:00,51.1,44.0,29.97,SSW,195,0.0,0.0,76,0.00,,,0.00,weatherlink.com 1.10,2013-02-13 01:24:00,
2013-02-12 20:39:00,50.6,44.0,29.94,SSW,195,0.0,1.0,79,0.00,,,0.00,weatherlink.com 1.10,2013-02-13 01:39:00,
2013-02-12 20:54:00,50.4,44.0,29.98,SSW,195,0.0,1.0,80,0.00,,,0.00,weatherlink.com 1.10,2013-02-13 01:54:00,
2013-02-12 21:09:00,50.3,44.0,29.97,SSW,195,0.0,1.0,80,0.00,,,0.00,weatherlink.com 1.10,2013-02-13 02:09:00,
2013-02-12 21:24:00,50.0,46.0,29.97,SSW,195,0.0,0.0,85,0.00,,,0.00,weatherlink.com 1.10,2013-02-13 02:24:00,
2013-02-12 21:39:00,49.5,46.0,29.97,SSW,195,0.0,1.0,88,0.00,,,0.00,weatherlink.com 1.10,2013-02-13 02:39:00,
2013-02-12 21:54:00,49.2,47.0,29.96,SSW,195,0.0,1.0,90,0.00,,,0.00,weatherlink.com 1.10,2013-02-13 02:54:00,
2013-02-12 22:09:00,48.6,46.0,29.98,SSW,195,0.0,0.0,91,0.00,,,0.00,weatherlink.com 1.10,2013-02-13 03:09:00,
2013-02-12 22:24:00,48.3,46.0,29.98,SSW,195,0.0,0.0,92,0.00,,,0.00,weatherlink.com 1.10,2013-02-13 03:24:00,
2013-02-12 22:39:00,48.0,46.0,29.98,SSW,195,0.0,0.0,94,0.00,,,0.00,weatherlink.com 1.10,2013-02-13 03:39:00,
2013-02-12 22:54:00,48.1,47.0,29.95,SSW,195,0.0,0.0,95,0.00,,,0.00,weatherlink.com 1.10,2013-02-13 03:54:00,
2013-02-12 23:09:00,47.8,47.0,29.94,SSW,195,0.0,0.0,95,0.00,,,0.00,weatherlink.com 1.10,2013-02-13 04:09:00,
2013-02-12 23:24:00,47.6,46.0,29.93,SSW,195,0.0,0.0,95,0.00,,,0.00,weatherlink.com 1.10,2013-02-13 04:24:00,
2013-02-12 23:39:00,47.0,46.0,29.91,SSW,195,0.0,2.0,95,0.00,,,0.00,weatherlink.com 1.10,2013-02-13 04:39:00,
2013-02-12 23:54:00,46.5,45.0,29.94,SSW,196,0.0,2.0,94,0.00,,,0.00,weatherlink.com 1.10,2013-02-13 04:54:00,